Location: Brompton
(51.4000°N, 0.5333°E)
Time: 16:45:11
(UTC+00:00)

Cosmos 1536 - Pass Details

Date: 11 May 2021
Orbit: 539 x 558 km, 82.5° (Epoch: 21 June)

Event Time Altitude Azimuth Distance (km) Brightness Sun altitude
Rises 22:39:21 0° 341° (NNW) 2,750 8.1 -18.6°
Reaches altitude 10° 22:41:43 10° 331° (NNW) 1,847 6.7 -18.7°
Maximum altitude 22:45:16 30° 270° (W) 1,018 4.3 -18.8°
Enters shadow 22:46:59 21° 228° (SW) 1,261 4.4 -18.9°
